TimeCDT,TemperatureF,Dew PointF,Humidity,Sea Level PressureIn,VisibilityMPH,Wind Direction,Wind SpeedMPH,Gust SpeedMPH,PrecipitationIn,Events,Conditions,WindDirDegrees,DateUTC
12:53 AM,71.1,68.0,90,29.93,10.0,SE,4.6,-,N/A,,Clear,140,2013-09-28 05:53:00
1:53 AM,70.0,68.0,93,29.93,10.0,SE,3.5,-,N/A,,Clear,140,2013-09-28 06:53:00
2:53 AM,69.1,66.9,93,29.93,10.0,ESE,3.5,-,N/A,,Clear,120,2013-09-28 07:53:00
3:53 AM,69.1,66.9,93,29.93,10.0,Calm,Calm,-,N/A,,Clear,0,2013-09-28 08:53:00
4:53 AM,69.1,66.9,93,29.94,9.0,ESE,3.5,-,N/A,,Clear,110,2013-09-28 09:53:00
5:53 AM,68.0,66.9,96,29.96,7.0,ENE,5.8,-,N/A,,Clear,70,2013-09-28 10:53:00
6:53 AM,68.0,66.9,96,29.97,5.0,East,3.5,-,N/A,,Clear,80,2013-09-28 11:53:00
7:53 AM,69.1,69.1,100,29.99,4.0,Calm,Calm,-,N/A,,Clear,0,2013-09-28 12:53:00
8:53 AM,73.0,71.1,93,30.00,8.0,SE,6.9,-,N/A,,Clear,130,2013-09-28 13:53:00
9:53 AM,79.0,71.1,77,30.00,10.0,SSE,8.1,-,N/A,,Clear,150,2013-09-28 14:53:00
10:53 AM,82.9,72.0,69,30.00,10.0,SSE,9.2,-,N/A,,Clear,150,2013-09-28 15:53:00
11:53 AM,86.0,69.1,57,30.00,10.0,SSE,12.7,-,N/A,,Clear,150,2013-09-28 16:53:00
12:53 PM,87.1,69.1,55,29.98,10.0,South,8.1,-,N/A,,Overcast,180,2013-09-28 17:53:00
1:53 PM,88.0,70.0,55,29.96,10.0,ESE,8.1,-,N/A,,Overcast,120,2013-09-28 18:53:00
2:53 PM,88.0,71.1,57,29.94,10.0,SE,12.7,-,N/A,,Overcast,130,2013-09-28 19:53:00
3:53 PM,86.0,71.1,61,29.92,10.0,SSE,12.7,-,N/A,Thunderstorm,Overcast,150,2013-09-28 20:53:00
4:08 PM,84.2,71.6,66,29.93,10.0,SSE,9.2,-,N/A,,Mostly Cloudy,150,2013-09-28 21:08:00
4:53 PM,81.0,75.0,82,29.92,10.0,SE,3.5,-,0.00,Rain,Light Rain,130,2013-09-28 21:53:00
5:53 PM,80.1,73.9,81,29.93,10.0,Calm,Calm,-,0.00,,Overcast,0,2013-09-28 22:53:00
6:53 PM,80.1,73.9,81,29.94,10.0,South,3.5,-,N/A,,Unknown,180,2013-09-28 23:53:00
7:53 PM,78.1,73.9,87,29.96,10.0,SE,3.5,-,N/A,,Mostly Cloudy,140,2013-09-29 00:53:00
8:53 PM,78.1,73.0,84,29.98,10.0,SSE,3.5,-,N/A,,Scattered Clouds,160,2013-09-29 01:53:00
9:53 PM,77.0,73.9,90,29.99,10.0,Calm,Calm,-,0.00,,Mostly Cloudy,0,2013-09-29 02:53:00
10:53 PM,77.0,73.0,88,30.00,10.0,Calm,Calm,-,0.00,,Overcast,0,2013-09-29 03:53:00
11:53 PM,75.0,73.0,94,29.99,10.0,Calm,Calm,-,0.00,,Partly Cloudy,0,2013-09-29 04:53:00